[[{"header":{"parameterUnit":"m.s-1","parameterCategory":1,"la1":30.2991,"la2":30.254,"lo1":-89.0895,"lo2":-89.0444,"dy":0.0017,"dx":0.0017,"nx":28,"ny":28,"refTime":"2023-07-31T03:00:00:Z","depth":0,"parameterNumber":2,"parameterNumberName":"U-component_of_WINDS"},"data":[0,0,0,0,0,0,0,0,0,0,0,0,0,0,0,0,0,0,0,0,0,0,0,0,0,0,0,0,0,0,0,0,0,0,0,0,0,0,0,0,0,0,0,0,0,0,0,0,0,0,0,0,0,0,0,0,0,0,-2.4197,-2.4198,0,-2.4241,-2.4242,-2.4242,-2.418,-2.4178,-2.4175,-2.4173,-2.4217,-2.422,-2.4223,0,0,0,0,0,0,0,0,0,0,0,0,0,-2.4057,-2.406,-2.4197,-2.4198,-2.4198,-2.4241,-2.4242,-2.4242,-2.418,-2.4178,-2.4175,-2.4172,-2.4216,-2.4219,-2.4223,0,0,0,0,0,0,0,0,0,0,0,0,0,-2.4111,-2.4061,-2.4197,-2.4172,-2.4171,-2.4241,-2.4242,-2.4243,-2.4181,-2.4178,-2.4174,-2.4171,-2.4214,-2.4219,-2.4224,-2.432,0,0,-2.4239,-2.4241,0,0,0,0,0,0,0,0,-2.4108,-2.4116,-2.4176,-2.4174,-2.4172,-2.4202,-2.4208,-2.4268,-2.4182,-2.4177,-2.4173,-2.417,-2.4214,-2.4219,-2.4234,-2.4322,-2.4324,-2.4239,-2.4242,-2.4244,-2.4245,0,0,0,0,0,0,0,-2.4104,-2.4114,-2.4214,-2.4176,-2.4175,-2.4158,-2.4163,-2.4219,-2.4214,-2.4177,-2.4173,-2.4179,-2.4213,-2.423,-2.4235,-2.4324,-2.4239,-2.4243,-2.4246,-2.4248,-2.4491,-2.4495,0,0,0,0,0,0,-2.4104,-2.4111,-2.4213,-2.4216,-2.4131,-2.4164,-2.4168,-2.4196,-2.4213,-2.4212,-2.4182,-2.4176,-2.4223,-2.4229,-2.4236,-2.4348,-2.4244,-2.4248,-2.4251,-2.4488,-2.4492,-2.4496,0,0,0,0,0,0,-2.4101,-2.4113,-2.4211,-2.4162,-2.4174,-2.417,-2.4201,-2.4198,-2.4215,-2.4216,-2.4215,-2.42,-2.4221,-2.4229,-2.4299,-2.4349,-2.4251,-2.4255,-2.4483,-2.4489,-2.4494,-2.4575,0,0,0,0,0,0,-2.4097,-2.4113,-2.415,-2.4164,-2.4176,-2.4275,-2.4204,-2.4201,-2.4224,-2.4217,-2.4233,-2.4233,-2.4219,-2.4292,-2.4304,-2.4354,-2.4259,-2.4479,-2.4486,-2.4492,-2.4568,-2.4582,-2.4595,0,0,0,0,0,-2.4092,-2.4171,-2.4152,-2.4165,-2.4223,-2.4278,-2.4285,-2.4268,-2.4228,-2.4265,-2.4265,-2.4232,-2.4342,-2.43,-2.4313,-2.4365,-2.4476,-2.4484,-2.4492,-2.4561,-2.4579,-2.4594,0,0,0,0,0,0,-2.4162,-2.4172,-2.4151,-2.4237,-2.4257,-2.4267,-2.4313,-2.4287,-2.4319,-2.431,-2.4287,-2.4292,-2.4366,-2.4373,-2.4326,-2.4458,-2.4402,-2.4413,-2.4451,-2.4468,-2.4481,-2.4477,-2.4263,0,0,0,0,0,-2.4187,-2.4232,-2.4238,-2.4312,-2.4324,-2.4317,-2.434,-2.4325,-2.4345,-2.4353,-2.4358,-2.4378,-2.4417,-2.4443,-2.4479,-2.4569,-2.457,-2.4611,-2.4624,-2.4635,-2.4645,-2.4691,-2.4709,-2.4522,-2.4522,-2.4522,0,0,-2.424,-2.4251,-2.428,-2.4327,-2.434,-2.4386,-2.4324,-2.4375,-2.4409,-2.436,-2.4426,-2.4431,-2.4452,-2.4532,-2.4567,-2.4539,-2.4697,-2.4646,-2.4654,-2.4658,-2.4701,-2.4719,-2.4735,-2.4528,-2.4527,-2.4526,0,0,-2.4358,-2.4372,-2.4435,-2.445,-2.4473,-2.4467,-2.4483,-2.4497,-2.4498,-2.4565,-2.4529,-2.4568,-2.4636,-2.4651,-2.4668,-2.4793,-2.4764,-2.4806,-2.4876,-2.4922,-2.4936,-2.4949,-2.4992,-2.5008,-2.4815,-2.4816,-2.4816,0,-2.4421,-2.4489,-2.447,-2.4524,-2.4545,-2.4504,-2.4567,-2.4583,-2.4615,-2.463,-2.4599,-2.4683,-2.4694,-2.4776,-2.4807,-2.4822,-2.4838,-2.4803,-2.4936,-2.4949,-2.496,-2.5001,-2.5018,-2.482,-2.482,-2.4819,-2.4819,0,-2.4563,-2.4611,-2.4659,-2.4692,-2.4719,-2.4777,-2.4767,-2.4796,-2.4779,-2.4777,-2.4844,-2.4856,-2.4893,-2.4912,-2.4896,-2.4992,-2.4974,-2.494,-2.4883,-2.4983,-2.5021,-2.5037,-2.4827,-2.4826,-2.4824,-2.4823,0,0,-2.4726,-2.4749,-2.4766,-2.478,-2.4802,-2.4838,-2.4894,-2.4931,-2.4956,-2.498,-2.5025,-2.5083,-2.5052,-2.5071,-2.5057,-2.5097,-2.5193,-2.5058,-2.5058,-2.5081,-2.5299,-2.5323,-2.5341,-2.5175,-2.5177,-2.518,-2.5296,0,-2.4843,-2.4941,-2.4926,-2.5019,-2.5063,-2.5025,-2.5073,-2.5092,-2.5091,-2.5127,-2.5126,-2.5168,-2.5124,-2.5135,-2.5173,-2.5174,-2.5237,-2.5165,-2.5215,-2.5217,-2.521,-2.5361,-2.5387,-2.5496,-2.5311,-2.5314,-2.5315,0,-2.4993,-2.5023,-2.5121,-2.5136,-2.5153,-2.5197,-2.5229,-2.5265,-2.5284,-2.5281,-2.5303,-2.5281,-2.5335,-2.5279,-2.5353,-2.5305,-2.5325,-2.5328,-2.5332,-2.5334,-2.5271,-2.5366,-2.5531,-2.5547,-2.5339,-2.5337,-2.5335,0,-2.51,-2.5165,-2.5231,-2.5245,-2.5264,-2.5296,-2.5305,-2.5321,-2.5344,-2.5372,-2.5386,-2.5421,-2.5439,-2.5465,-2.5452,-2.5413,-2.5529,-2.5472,-2.5526,-2.5527,-2.5551,-2.5549,-2.5719,-2.5567,-2.5567,-2.5566,-2.5566,0,-2.5231,-2.5292,-2.528,-2.5321,-2.5388,-2.537,-2.5437,-2.5441,-2.5456,-2.5496,-2.5466,-2.5504,-2.5486,-2.5523,-2.5513,-2.5575,-2.5584,-2.5582,-2.5578,-2.5584,-2.5584,-2.5595,-2.5586,-2.5571,-2.557,-2.5569,-2.5568,0,-2.5361,-2.5355,-2.5425,-2.5438,-2.5442,-2.5491,-2.5501,-2.5539,-2.5537,-2.5588,-2.5599,-2.5595,-2.5637,-2.5627,-2.5673,-2.5666,-2.5744,-2.5732,-2.5738,-2.5734,-2.5788,-2.5783,-2.597,-2.5993,-2.5828,-2.5829,-2.5831,0,-2.5444,-2.549,-2.5508,-2.5533,-2.5545,-2.5586,-2.561,-2.5595,-2.562,-2.5646,-2.568,-2.5719,-2.5749,-2.5818,-2.5818,-2.5853,-2.584,-2.5903,-2.5844,-2.5848,-2.5838,-2.5835,-2.5839,-2.5914,-2.5916,-2.5918,-2.5919,0,-2.5592,-2.5587,-2.5622,-2.5657,-2.5686,-2.5713,-2.5736,-2.5758,-2.5745,-2.5775,-2.5817,-2.5841,-2.5888,-2.5926,-2.5958,-2.5966,-2.594,-2.5938,-2.5952,-2.5956,-2.5957,-2.5956,-2.5767,-2.5933,-2.5931,-2.593,-2.593,-2.5929,-2.5699,-2.5738,-2.5757,-2.5797,-2.5814,-2.5836,-2.5872,-2.5875,-2.5911,-2.5948,-2.5937,-2.5985,-2.6002,-2.6042,-2.6055,-2.6091,-2.6067,-2.6088,-2.6093,-2.6098,-2.6104,-2.5953,-2.6097,-2.6097,-2.6096,-2.6096,-2.6096,0,-2.5844,-2.5854,-2.5892,-2.5926,-2.5958,-2.5932,-2.5957,-2.5984,-2.6027,-2.6047,-2.6077,-2.6126,-2.6163,-2.6167,-2.6202,-2.6231,-2.6219,-2.624,-2.6237,-2.6239,-2.6124,-2.6108,-2.6249,-2.6249,-2.6249,-2.6249,-2.6249,-2.6249,-2.5923,-2.5987,-2.5984,-2.6056,-2.6066,-2.6113,-2.6129,-2.615,-2.6165,-2.6221,-2.6252,-2.6255,-2.6268,-2.6303,-2.6336,-2.6336,-2.6349,-2.6375,-2.637,-2.6262,-2.6247,-2.6232,-2.6217,-2.6378,-2.6378,-2.6481,-2.6482,-2.6483]},{"header":{"parameterUnit":"m.s-1","parameterCategory":1,"la1":30.2991,"la2":30.254,"lo1":-89.0895,"lo2":-89.0444,"dy":0.0017,"dx":0.0017,"nx":28,"ny":28,"refTime":"2023-07-31T03:00:00:Z","depth":0,"parameterNumber":3,"parameterNumberName":"V-component_of_WINDS"},"data":[0,0,0,0,0,0,0,0,0,0,0,0,0,0,0,0,0,0,0,0,0,0,0,0,0,0,0,0,0,0,0,0,0,0,0,0,0,0,0,0,0,0,0,0,0,0,0,0,0,0,0,0,0,0,0,0,0,0,-2.7548,-2.7549,0,-2.7558,-2.7558,-2.7558,-2.7537,-2.7536,-2.7536,-2.7535,-2.7544,-2.7545,-2.7546,0,0,0,0,0,0,0,0,0,0,0,0,0,-2.751,-2.7511,-2.7548,-2.7549,-2.7549,-2.7558,-2.7558,-2.7558,-2.7537,-2.7536,-2.7535,-2.7535,-2.7544,-2.7545,-2.7546,0,0,0,0,0,0,0,0,0,0,0,0,0,-2.7524,-2.7511,-2.7548,-2.7539,-2.7539,-2.7558,-2.7558,-2.7558,-2.7537,-2.7536,-2.7535,-2.7534,-2.7543,-2.7545,-2.7546,-2.7575,0,0,-2.755,-2.7551,0,0,0,0,0,0,0,0,-2.7523,-2.7525,-2.7541,-2.754,-2.7539,-2.7545,-2.7548,-2.7564,-2.7538,-2.7538,-2.7535,-2.7534,-2.7545,-2.7546,-2.755,-2.7575,-2.7576,-2.755,-2.7551,-2.7552,-2.7552,0,0,0,0,0,0,0,-2.7522,-2.7525,-2.7552,-2.7541,-2.754,-2.7534,-2.7535,-2.7551,-2.7547,-2.7538,-2.7536,-2.7538,-2.7545,-2.7549,-2.755,-2.7576,-2.755,-2.7551,-2.7552,-2.7553,-2.7622,-2.7623,0,0,0,0,0,0,-2.7522,-2.7524,-2.7552,-2.7553,-2.7528,-2.7536,-2.7537,-2.7544,-2.7547,-2.7546,-2.7538,-2.7537,-2.7547,-2.7549,-2.7551,-2.7583,-2.7552,-2.7553,-2.7554,-2.7621,-2.7622,-2.7624,0,0,0,0,0,0,-2.7522,-2.7525,-2.7552,-2.7538,-2.7541,-2.7537,-2.7546,-2.7545,-2.755,-2.7548,-2.7547,-2.7544,-2.7547,-2.7549,-2.7568,-2.7583,-2.7553,-2.7555,-2.762,-2.7622,-2.7623,-2.7649,0,0,0,0,0,0,-2.7521,-2.7525,-2.7536,-2.7538,-2.7542,-2.757,-2.7547,-2.7546,-2.7552,-2.755,-2.7552,-2.7552,-2.7546,-2.7567,-2.757,-2.7584,-2.7556,-2.7619,-2.7621,-2.7623,-2.7646,-2.7651,-2.7655,0,0,0,0,0,-2.7519,-2.7544,-2.7537,-2.7541,-2.7556,-2.7571,-2.7573,-2.7566,-2.7553,-2.7564,-2.7563,-2.7552,-2.7581,-2.7569,-2.7572,-2.7587,-2.7618,-2.762,-2.7622,-2.7645,-2.765,-2.7655,0,0,0,0,0,0,-2.7544,-2.7544,-2.7537,-2.7562,-2.7567,-2.7567,-2.7581,-2.7572,-2.758,-2.7577,-2.7568,-2.7569,-2.759,-2.7591,-2.7577,-2.7614,-2.7597,-2.76,-2.7613,-2.7618,-2.7622,-2.7621,-2.7557,0,0,0,0,0,-2.7552,-2.7565,-2.7564,-2.7586,-2.7589,-2.7585,-2.7591,-2.7585,-2.7589,-2.7591,-2.7591,-2.7595,-2.7605,-2.7612,-2.7621,-2.7647,-2.7646,-2.7659,-2.7663,-2.7666,-2.7669,-2.7681,-2.7686,-2.7631,-2.7631,-2.7631,0,0,-2.7569,-2.7571,-2.7579,-2.7591,-2.7594,-2.7606,-2.7586,-2.7601,-2.7609,-2.7593,-2.7611,-2.7611,-2.7615,-2.7637,-2.7647,-2.7639,-2.7684,-2.7669,-2.7672,-2.7673,-2.7684,-2.7689,-2.7693,-2.7633,-2.7633,-2.7633,0,0,-2.7607,-2.761,-2.7628,-2.7631,-2.7635,-2.7632,-2.7637,-2.7638,-2.7637,-2.7656,-2.7643,-2.7653,-2.7671,-2.7674,-2.7677,-2.7714,-2.7704,-2.7718,-2.7739,-2.7751,-2.7755,-2.7759,-2.777,-2.7775,-2.772,-2.7721,-2.7721,0,-2.7628,-2.7646,-2.7639,-2.7654,-2.7658,-2.7644,-2.7662,-2.7665,-2.7672,-2.7675,-2.7666,-2.7686,-2.7688,-2.771,-2.7719,-2.7723,-2.7727,-2.7717,-2.7755,-2.7759,-2.7762,-2.7773,-2.7778,-2.7722,-2.7722,-2.7722,-2.7722,0,-2.7671,-2.7684,-2.7698,-2.7705,-2.7711,-2.7728,-2.7721,-2.7729,-2.7722,-2.772,-2.7737,-2.7739,-2.7747,-2.7752,-2.7746,-2.7773,-2.7767,-2.7757,-2.7739,-2.7769,-2.7779,-2.7783,-2.7724,-2.7724,-2.7723,-2.7723,0,0,-2.7725,-2.7726,-2.7731,-2.7733,-2.7736,-2.7746,-2.7761,-2.7769,-2.7774,-2.778,-2.7791,-2.7806,-2.7795,-2.78,-2.7794,-2.7804,-2.7831,-2.7792,-2.7792,-2.7798,-2.7859,-2.7866,-2.7871,-2.7825,-2.7826,-2.7826,-2.7858,0,-2.7761,-2.7786,-2.7779,-2.7805,-2.7815,-2.7801,-2.7814,-2.7817,-2.7814,-2.7823,-2.782,-2.783,-2.7817,-2.7819,-2.7829,-2.7826,-2.7843,-2.7824,-2.7834,-2.7835,-2.7833,-2.7877,-2.7885,-2.7915,-2.7862,-2.7863,-2.7863,0,-2.7806,-2.7812,-2.7839,-2.7838,-2.7842,-2.7854,-2.786,-2.7869,-2.7871,-2.7868,-2.7872,-2.7864,-2.7877,-2.786,-2.7878,-2.7865,-2.7869,-2.7868,-2.7869,-2.7869,-2.785,-2.7877,-2.7924,-2.7928,-2.787,-2.7869,-2.7869,0,-2.7841,-2.7856,-2.7873,-2.7875,-2.7876,-2.7884,-2.7884,-2.7885,-2.789,-2.7895,-2.7898,-2.7905,-2.7908,-2.7914,-2.7907,-2.7895,-2.7925,-2.7908,-2.7922,-2.7922,-2.7928,-2.7928,-2.7976,-2.7933,-2.7933,-2.7933,-2.7933,0,-2.7881,-2.7898,-2.7888,-2.7899,-2.7916,-2.7907,-2.7924,-2.7923,-2.7924,-2.7933,-2.7922,-2.7931,-2.7922,-2.7929,-2.7924,-2.7939,-2.7941,-2.7939,-2.7937,-2.7939,-2.7939,-2.7941,-2.7938,-2.7934,-2.7934,-2.7934,-2.7933,0,-2.7923,-2.7917,-2.7935,-2.7933,-2.7933,-2.7945,-2.7944,-2.7953,-2.7949,-2.7961,-2.7963,-2.7958,-2.7966,-2.796,-2.7969,-2.7965,-2.7984,-2.798,-2.7983,-2.7982,-2.7996,-2.7994,-2.8046,-2.8052,-2.8006,-2.8006,-2.8007,0,-2.7948,-2.796,-2.7959,-2.7965,-2.7966,-2.7974,-2.7979,-2.797,-2.7975,-2.7978,-2.7986,-2.7994,-2.7999,-2.8013,-2.801,-2.8016,-2.8011,-2.8029,-2.8012,-2.8013,-2.801,-2.8008,-2.8009,-2.8032,-2.8032,-2.8033,-2.8033,0,-2.7994,-2.799,-2.7997,-2.8002,-2.8008,-2.8012,-2.8015,-2.802,-2.8011,-2.8017,-2.8025,-2.8029,-2.8038,-2.8045,-2.8049,-2.8049,-2.8039,-2.8039,-2.8042,-2.8044,-2.8044,-2.8043,-2.7991,-2.8037,-2.8037,-2.8037,-2.8036,-2.8036,-2.8027,-2.8036,-2.8036,-2.8044,-2.8045,-2.8048,-2.8056,-2.8053,-2.806,-2.8065,-2.806,-2.8069,-2.807,-2.8075,-2.8076,-2.8083,-2.8076,-2.8081,-2.8082,-2.8083,-2.8084,-2.8044,-2.8084,-2.8084,-2.8084,-2.8084,-2.8084,0,-2.807,-2.807,-2.8077,-2.8081,-2.8086,-2.8077,-2.8079,-2.8084,-2.8093,-2.8094,-2.8099,-2.8108,-2.8114,-2.8111,-2.8116,-2.8122,-2.8118,-2.8124,-2.8123,-2.8122,-2.8092,-2.8087,-2.8127,-2.8127,-2.8127,-2.8127,-2.8127,-2.8127,-2.8094,-2.8108,-2.8104,-2.8119,-2.8118,-2.8126,-2.8128,-2.8131,-2.8131,-2.8141,-2.8146,-2.8144,-2.8143,-2.8148,-2.8153,-2.8152,-2.8154,-2.8161,-2.8158,-2.8129,-2.8125,-2.8121,-2.8117,-2.8162,-2.8162,-2.8189,-2.8189,-2.8189]}]]